BREEZE-KM R/B, 44909

Orbit data source: Space-Track

BREEZE-KM R/B, 44909 is space debris in LEO originally from a launch on Thu, 26 Dec 2019 UTC via an ROKOT launch vehicle from the Plesetsk Missile And Space Complex (PKMTR). Debris objects in space refer to the collection of defunct objects orbiting the Earth. Examples of debris include non-operational satellites, rocket bodies, and fragments generated from explosions, collisions, or faulty payload assembly.

Loading next visibility...
Identifier
44909, 2019-096E
Orbit
LEO
Last TLE update
12 hours ago
Origin
Manufacturer
SNIU/RESH
Mission
Operational Amateur Communications
Bus & Motor
YUBILYENIY, Unknown motor
Mass
~2,420 kg wet, ~50 kg dry
Launch date (UTC)
2019-12-26 (5 years ago)
Launch vehicle
ROKOT
Launch site
Plesetsk Missile And Space Complex (PKMTR)
Object type
Payload
Rocket body
Debris
Shape & HBR
Hex Cyl + 1 Rod, 4.1 m
Radar Cross Section
10.190 m², Large (>1 m²)

Expand to show TLE details & history

TLE from 12 hours ago
0 BREEZE-KM R/B
1 44909U 19096E   25128.73493441  .00000000  00000-0 -44116-4 0  9995
2 44909  82.5212 248.4332 0217507  10.3419 350.2050 12.79740388250612
Epoch: 2025-05-08T17:38Z
Definitive object data (Epoch: 2025-05-08T17:38:18.333Z)
Latitude
0.00003°
Longitude
117.05565°
Altitude
1,179.867 km
Speed
7.341 km/s
True Right ascension
16h 33m 43s
True Declination
0° 00' 00"
Sunlit
Object was in full shadow at TLE epoch
Visualization TLE readout
Latitude
9.43803°
Longitude
-64.5247°
Altitude
1,503.22 km
Speed
7.04 km/s
Apparent Right ascension
03h 29m 16s
Apparent Declination
-13° 02' 49"
Sunlit
Object is in daylight
Visualization observer readout
Local Sidereal Time
13:55:22
Azimuth
315.886° NNW
Elevation
-56.12°
Doppler factor
1
Orbital elements
Apogee altitude
1,507.681 km
Perigee altitude
1,171.94 km
Semi-major axis
7,717.947 km
Eccentricity
0.0217507
Inclination
82.5212°
RAAN
248.4332°
Arg. of periapsis
10.3419°
True anomaly
349.76932°
Mean anomaly
350.205°
Eccentric anomaly
349.98835°
Mean motion
3.20104 °/min
BSTAR
-0.000044116
Orbital period
112.46 mins
Loading maneuver chart data...
Loading SW <> Apogee altitude chart data...
Loading historical data...
Loading historical data...
Loading historical data...
Loading historical data...
Loading historical data...
Loading historical data...
Loading historical data...

BREEZE-KM R/B Visibility forecast

Observer location: undefined°, undefined°

Span
Click to sort rows by Start time (UTC) header in descending order
Start Az.
Max El. time (UTC)
Max El. Az.
Max El.
End time (UTC)
End Az.
6 mins2025-05-09 06:55:39.339Z104.607° ESE2025-05-09 06:58:39.339Z78.782° E13.941°2025-05-09 07:01:39.339Z52.979° ENE
12 mins2025-05-09 08:45:39.339Z187.995° SSW2025-05-09 08:50:39.339Z213.343° SW44.714°2025-05-09 08:57:39.339Z6.737° NNE
5 mins2025-05-09 10:43:39.339Z280.218° WNW2025-05-09 10:45:39.339Z297.948° NW13.774°2025-05-09 10:48:39.339Z323.475° NNW
13 mins2025-05-09 18:37:39.339Z14.173° NNE2025-05-09 18:43:39.339Z69.478° E29.763°2025-05-09 18:50:39.339Z131.892° SE
15 mins2025-05-09 20:30:39.339Z339.277° N2025-05-09 20:37:39.339Z266.787° W37.76°2025-05-09 20:45:39.339Z198.666° SSW
|